Regional Weather Roundup
Issued by NWS

Home | Current Version | Previous Version | Text Only | Print | Product List | Glossary On
Versions: 1 2 3 4 5 6 7 8 9 10 11 12 13 14 15 16 17 18 19 20 21 22 23 24 25 26 27 28 29 30 31 32 33 34 35 36 37 38 39 40 41 42 43 44 45 46 47 48 49 50
532
ASHW40 PHFO 051643
RWRHI

WEATHER ROUNDUP FOR HAWAII
NATIONAL WEATHER SERVICE HONOLULU HI
600 AM HST MON DEC 05 2016

THIS IS AN AUTOMATED REPORT THAT HAS NOT BEEN QUALITY CONTROLLED.

NOTE..."FAIR" INDICATES FEW OR NO CLOUDS BELOW 12,000 FEET WITH NO
SIGNIFICANT WEATHER AND/OR OBSTRUCTIONS TO VISIBILITY.

* - THESE SITES REPORT LIMITED FIELDS

HIZ001>004-051700-
KAUAI-NIIHAU-

CITY           SKY/WX    TMP DP  RH WIND       PRES   REMARKS
LIHUE APT      CLEAR     66  63  90 W3        29.90R
PORT ALLEN*      N/A     68 N/A N/A NE8         N/A
POIPU*           N/A     68 N/A N/A VRB2        N/A
PRINCEVILLE*     N/A     66 N/A N/A SW3         N/A
KOKOLE POINT*  NOT AVBL
MOLOAA DAIRY*    N/A     70  66  88 W2          N/A
WAIMEA HTS*      N/A     70  64  83 N1          N/A
PUU OPAE*      NOT AVBL
PUU LUA*       NOT AVBL
MAKAHA RIDGE*    N/A     64  63  94 CALM        N/A
$$

HIZ005>011-051700-
OAHU-

CITY           SKY/WX    TMP DP  RH WIND       PRES   REMARKS
HONOLULU       CLOUDY    68  66  93 CALM      29.90R
KALAELOA       PTCLDY    69  66  90 CALM      29.91R
KANEOHE MCB    NOT AVBL
WHEELER FIELD  PTCLDY    66  66  99 E3        29.91
BELLOWS*         N/A    N/A N/A N/A SW5         N/A
KAHUKU*          N/A    N/A N/A N/A E1          N/A
WHEELER*         N/A    N/A N/A N/A NE3         N/A
WAIANAE HARBOR   N/A    N/A N/A N/A NE3         N/A
DILLINGHAM*      N/A     77  73  88 MISG        N/A
KAHUKU TRN*      N/A     68  64  88 CALM        N/A
KAWAILOA*        N/A     66  61  82 E5          N/A
KII*             N/A     68  64  88 S3          N/A
MAKUA RANGE*     N/A     70  63  78 NW5         N/A
OAHU FOREST NW   N/A     66  61  82 SE3         N/A
SCHOFIELD BRK*   N/A     64  63  94 MISG        N/A
SCHOFIELD S*   NOT AVBL
WAIANAE VLY*     N/A     64  63  94 NW5         N/A
KUAOKALA*        N/A     70  68  94 CALM        N/A
HONOULIUULI*   NOT AVBL
MOKUOLOE IS*   NOT AVBL
PALEHUA*         N/A    N/A N/A N/A CALM        N/A
WAIAWA PHB*    NOT AVBL
$$

HIZ012>013-051700-
MOLOKAI-

CITY           SKY/WX    TMP DP  RH WIND       PRES   REMARKS
MOLOKAI AIRPT  LGT RAIN  72  68  88 N7        29.91R
KALAUPAPA      NOT AVBL
MAKAPULAPAI*     N/A     70  68  94 SE3         N/A
MOLOKAI 1*     NOT AVBL
PUU ALII*        N/A     57  57 100 N1          N/A
$$

HIZ016-051700-
KAHOOLAWE-

CITY           SKY/WX    TMP DP  RH WIND       PRES   REMARKS
KAHOOLAWE*     NOT AVBL
HAKIOAWA*        N/A     68  68  99 MISG      30.33R
HONOKANAIA*      N/A     70  67  89 NW3G13    29.83R
KANELOA*         N/A     68  68 100 NE6G20    29.94R
KEALIALALO*    NOT AVBL
LUA MAKIKA*    NOT AVBL
$$

HIZ014>015-051700-
LANAI-

CITY           SKY/WX    TMP DP  RH WIND       PRES   REMARKS
LANAI CITY     CLOUDY    67  65  93 NW3       29.97R
LANAI 1*       NOT AVBL
$$

HIZ017>028-051700-
MAUI-

CITY           SKY/WX    TMP DP  RH WIND       PRES   REMARKS
KAHULUI        MOCLDY    71  67  87 N3        29.90R
KAPALUA-W MAUI PTCLDY    70  66  88 N6        29.90
HANA AIRPORT   LGT RAIN  68  66  94 S3        29.95S
HANA*            N/A     68 N/A N/A S3          N/A
HALEAKALA SUMM   N/A     43  43 100 W13G33      N/A
MAALAEA BAY*     N/A     72 N/A N/A NW6         N/A
HALEAKALA*     NOT AVBL
KAUPO GAP*       N/A     72  72 100 S2          N/A
KULA 1*          N/A     52  51  95 E6G15       N/A
$$

HIZ023>026-051700-
BIG ISLAND OF HAWAII COAST AND LOWER SLOPES-

CITY           SKY/WX    TMP DP  RH WIND       PRES   REMARKS
KAILUA KONA    RAIN      70  68  93 NE20      29.88S
HILO           HVY RAIN  70  68  94 CALM      29.91R FOG
HONOKAA*         N/A     64 N/A N/A VRB1        N/A
KAWAIHAE MWT*    N/A     70 N/A N/A SE1         N/A
KAWAIHAE*      NOT AVBL
SOUTH POINT*     N/A     70 N/A N/A N16G24      N/A
UPOLU AIRPORT* NOT AVBL
KAMUELA*       PTSUNNY   63  63 100 NE9       30.01S
HAKALAU*         N/A     55  54  97 S3          N/A
KALOKO-HONOKO*   N/A     72  66  83 N12G20    29.86F
PALI 2*          N/A     64  64 100 W6G17       N/A
KEALAKOMO*       N/A     73  70  88 N8          N/A
KAUPULEHU*       N/A     66  63  88 SE12        N/A
KAPAPALA*      NOT AVBL
LOWER KAHUKU*    N/A     61  61 100 VRB3G12     N/A
PUHE CS*         N/A     68  64  88 E2          N/A
PUHO CS*         N/A     65  32  29 E1          N/A
PTA KEAMUKU*     N/A     61  57  88 CALM        N/A
WAIKOLOA*        N/A     64  63  94 E5          N/A
$$

HIZ027>028-051700-
BIG ISLAND OF HAWAII INTERIOR AND SUMMMITS-

CITY           SKY/WX    TMP DP  RH WIND       PRES   REMARKS
BRADSHAW FIELD RAIN      53  53  98 W3        30.20  VSB 5/16
MK VISITOR CEN   N/A     48  46  93 E7          N/A
MAUNA KEA*       N/A     34  34 100 S15         N/A  WCI  24
MAUNA LOA*       N/A     43  37  81 MISG        N/A
MAUNA LOA 1*   NOT AVBL
PTA KIPUKA*      N/A     61  61 100 VRB2        N/A
PTA RANGE 17*    N/A     54  52  94 W6          N/A
PTA WEST*        N/A     57  55  94 NW2         N/A
NENE CABIN*      N/A     54  54 100 E7G16       N/A
AHUMOA*          N/A     53  53 100 NE8G15      N/A
PTA PORTABLE*  NOT AVBL
PUU MALI*        N/A     52  52 100 CALM        N/A
$$

HIC003-051700-
NORTHWEST ISLANDS-

CITY           SKY/WX    TMP DP  RH WIND       PRES   REMARKS
MIDWAY ISLAND  CLOUDY    66  63  88 E15       30.00F
MIDWAY NOS*      N/A     70 N/A N/A MISG      29.98S
FRENCH FRIGATE NOT AVBL
$$

PHZ110>124-180-051700-
BUOY REPORTS

STATION/POSITION TIME  TEMP    WIND        PRES    WAVE   SWELL
                       AIR SEA DIR/SP/G            HT/PER HT/DIR
                 (UTC) (F)     (DEG/KT/KT) (MB)    (FT/S) (FT/D)
BUOY 51001       1630   74 77  290/  8/ 14 1012.0R
BUOY 51101       1550   74 78  290/ 12/ 16 1012.2R  11/10  11/ 70
BUOY 51100       NOT AVBL
BUOY 51002       1630   75 78  340/  8/ 10 1012.0S
BUOY 51003       1550   76 79  180/  6/  8 1011.6R   8/10   8/340
BUOY 51004       1550   75 78  150/  6/  8 1012.8R   8/10   8/ 80
BARBERS PT BUOY  NOT AVBL
WAIMEA BAY BUOY  NOT AVBL
KAILUA BAY BUOY  1604      78                N/A     6/10   3/ 50
LANAI BUOY       1615      79                N/A     3/13   2/290
BARBERS PT 2     1609      79                N/A     6/12   3/300
PAUWELA MAUI     1609      78                N/A     8/11   5/ 30
HILO             1612      77                N/A     8/ 9   3/ 80
KANEOHE BAY BUOY 1606      77                N/A     6/10   3/350
HANALEI KAUAI    1622      78                N/A    10/12   7/350
KAHULUI HARBOR   1612   73 77  350/  5/  7 1012.5
HONOLULU HARBOR  1618   70 78   CALM  /  2 1013.3
KILO NALU        NOT AVBL
HILO HARBOR      1612   68 76  180/  4/  4 1012.5
MOKUOLOE         1536          160/  2/  2   N/A
NAWILIWILI       1618   67 78  270/  5/  6 1012.3
WHOTS BUOY       NOT AVBL
BUOY 51028       NOT AVBL
$$

......................KEY........................................
  SKY/WX - SKY CONDITIONS/PRESENT WEATHER
  TMP    - TEMPERATURE IN FAHRENHEIT
  DWPT   - DEWPOINT IN FAHRENHEIT
  RH     - RELATIVE HUMIDITY IN PERCENT
  WIND   - DIRECTION AND SPEED /MPH FOR ISLANDS...KTS FOR BUOYS/
  PRES   - MEAN SEA LEVEL PRESSURE IN INCHES OF HG
  VSB    - VISIBILITY IN MILES
  HX     - HEAT INDEX
  WCI    - WIND CHILL INDEX
  VRB    - VARIABLE WIND DIRECTION
  N/A    - NOT AVAILABLE




USA.gov is the U.S. government's official web portal to all federal, state and local government web resources and services.